User: anonymous   Login
Location: Unspecified
(0.0000°N, 0.0000°E)
Time: 10:03:23
(UTC+00:00)
Language:

USA 184 - Orbit

View from above orbital plane
View from above orbital plane
View from above satellite
View from above satellite

Ground track
Ground track

The orbit data is extracted from the following two-line orbital elements,

1 29249U 06027A   17112.73964896 0.00000000  00000-0  00000-0 0    08
2 29249  62.8331 285.7905 7040689 269.2780  16.8597  2.00614700    01
Epoch (UTC): 22 April 2017 17:45:05
Eccentricity: 0.7040689
inclination: 62.8331°
perigee height: 1480 km
apogee height: 38874 km
right ascension of ascending node: 285.7905°
argument of perigee: 269.2780°
revolutions per day: 2.00614700
mean anomaly at epoch: 16.8597°
orbit number at epoch: 0

The dashed part of the orbit path shows where the satellite is in the earth's shadow,  

DLR